[[{"header":{"parameterUnit":"m.s-1","parameterCategory":1,"la1":30.2991,"la2":30.254,"lo1":-89.0895,"lo2":-89.0444,"dy":0.0017,"dx":0.0017,"nx":28,"ny":28,"refTime":"2024-10-10T21:00:00:Z","depth":0,"parameterNumber":2,"parameterNumberName":"U-component_of_WINDS"},"data":[0,0,0,0,0,0,0,0,0,0,0,0,0,0,0,0,0,0,0,0,0,0,0,0,0,0,0,0,0,0,0,0,0,0,0,0,0,0,0,0,0,0,0,0,0,0,0,0,0,0,0,0,0,0,0,0,0,0,0.3377,0.3378,0,0.3463,0.3464,0.3465,0.3432,0.343,0.3428,0.3426,0.3518,0.3522,0.3527,0,0,0,0,0,0,0,0,0,0,0,0,0,0.3188,0.3192,0.3377,0.3378,0.3379,0.3463,0.3464,0.3465,0.3432,0.343,0.3427,0.3425,0.3517,0.3522,0.3527,0,0,0,0,0,0,0,0,0,0,0,0,0,0.3272,0.3193,0.3377,0.3372,0.3373,0.3463,0.3464,0.3466,0.3433,0.3429,0.3426,0.3424,0.3515,0.3521,0.3528,0.3628,0,0,0.3548,0.355,0,0,0,0,0,0,0,0,0.3267,0.3279,0.3372,0.3373,0.3373,0.3433,0.3432,0.352,0.3433,0.341,0.3426,0.3422,0.3493,0.3501,0.3524,0.3633,0.3637,0.3548,0.3552,0.3555,0.3557,0,0,0,0,0,0,0,0.3262,0.3275,0.3411,0.3373,0.3374,0.3368,0.3376,0.3448,0.3467,0.3412,0.341,0.342,0.3493,0.3518,0.3526,0.3638,0.3548,0.3554,0.3558,0.356,0.3838,0.3841,0,0,0,0,0,0,0.3255,0.3271,0.3408,0.3414,0.3312,0.3374,0.3383,0.3417,0.3466,0.3471,0.3422,0.3418,0.3508,0.3518,0.3529,0.3653,0.3555,0.3561,0.3565,0.3834,0.3839,0.3842,0,0,0,0,0,0,0.3251,0.3267,0.3405,0.3342,0.3359,0.338,0.3419,0.3421,0.3446,0.3474,0.3478,0.3444,0.3506,0.352,0.3604,0.3656,0.3564,0.357,0.383,0.3836,0.384,0.39,0,0,0,0,0,0,0.3246,0.3266,0.3303,0.3343,0.3362,0.3478,0.3422,0.3425,0.3456,0.3452,0.3496,0.35,0.3505,0.3595,0.3611,0.3663,0.3575,0.3826,0.3833,0.3839,0.3894,0.3907,0.3918,0,0,0,0,0,0.3239,0.3317,0.3305,0.3322,0.3409,0.3481,0.3492,0.3494,0.3461,0.3499,0.3518,0.3499,0.3647,0.3604,0.3622,0.3676,0.3823,0.3831,0.3838,0.3888,0.3904,0.3918,0,0,0,0,0,0,0.3284,0.3322,0.331,0.3402,0.3438,0.3475,0.3524,0.351,0.3558,0.3551,0.3553,0.3564,0.3652,0.3672,0.3624,0.3778,0.373,0.3742,0.3762,0.3777,0.3789,0.3784,0.358,0,0,0,0,0,0.3304,0.3358,0.3389,0.3467,0.3486,0.3502,0.3533,0.3532,0.357,0.3586,0.361,0.365,0.3705,0.3742,0.3794,0.3896,0.3907,0.3942,0.3954,0.3964,0.3975,0.4034,0.4051,0.3868,0.3868,0.3868,0,0,0.3347,0.3375,0.3409,0.3477,0.3505,0.3563,0.3515,0.3577,0.3621,0.3595,0.3678,0.3698,0.3741,0.3836,0.3879,0.3856,0.4028,0.3974,0.3982,0.3988,0.4044,0.4061,0.4077,0.3873,0.3872,0.3871,0,0,0.3456,0.3481,0.3551,0.358,0.3623,0.3633,0.365,0.3689,0.3701,0.3783,0.3766,0.3819,0.3913,0.3946,0.3976,0.4099,0.4085,0.4116,0.418,0.4238,0.4252,0.4265,0.4313,0.4329,0.4126,0.4127,0.4127,0,0.3505,0.359,0.3589,0.3654,0.3686,0.3664,0.3737,0.3765,0.3824,0.3847,0.382,0.394,0.3968,0.4072,0.4102,0.4125,0.4147,0.4112,0.425,0.4263,0.4275,0.432,0.4338,0.413,0.413,0.413,0.4129,0,0.365,0.3709,0.3761,0.3818,0.3855,0.3924,0.3935,0.3973,0.3969,0.3983,0.4069,0.4101,0.4161,0.4185,0.4181,0.429,0.4274,0.4248,0.4201,0.4296,0.4339,0.4356,0.4136,0.4135,0.4133,0.4132,0,0,0.379,0.3846,0.3865,0.3892,0.3939,0.3986,0.4054,0.4112,0.4147,0.4188,0.4248,0.4329,0.4306,0.434,0.4339,0.4389,0.449,0.4358,0.4359,0.4384,0.4615,0.4637,0.4657,0.4479,0.4482,0.4485,0.4613,0,0.3906,0.4025,0.4026,0.4137,0.4194,0.4175,0.4235,0.4271,0.4286,0.4338,0.4355,0.4414,0.4377,0.4398,0.4446,0.4467,0.4537,0.4457,0.4538,0.4541,0.4531,0.4679,0.4701,0.482,0.4629,0.4632,0.4634,0,0.4056,0.4102,0.4219,0.4259,0.4283,0.4337,0.4392,0.4441,0.4483,0.4491,0.4529,0.4522,0.4594,0.4542,0.4644,0.459,0.4623,0.4639,0.4643,0.4653,0.4595,0.4696,0.4858,0.4877,0.466,0.4658,0.4656,0,0.4151,0.4242,0.4325,0.4348,0.4396,0.4435,0.4458,0.4496,0.4532,0.458,0.4604,0.466,0.4692,0.4737,0.4746,0.4707,0.485,0.4798,0.4861,0.4861,0.4894,0.4893,0.5067,0.491,0.491,0.491,0.4909,0,0.4282,0.4355,0.4368,0.4419,0.4501,0.4503,0.4585,0.4604,0.4639,0.4696,0.4682,0.4735,0.4742,0.4799,0.4806,0.4892,0.4905,0.4916,0.4917,0.4919,0.4918,0.4942,0.4936,0.4914,0.4913,0.4912,0.4911,0,0.4403,0.4414,0.4504,0.4543,0.4554,0.4613,0.4648,0.4698,0.4711,0.4783,0.48,0.4822,0.4888,0.49,0.4978,0.4983,0.5086,0.5078,0.5072,0.5072,0.5136,0.5131,0.5335,0.5364,0.5185,0.5186,0.5188,0,0.4487,0.4543,0.4588,0.4624,0.4649,0.4707,0.4743,0.4748,0.4787,0.484,0.4885,0.4948,0.5,0.5106,0.513,0.519,0.5185,0.5252,0.5194,0.5195,0.5191,0.5189,0.5196,0.5265,0.5267,0.5268,0.5269,0,0.4636,0.464,0.4692,0.4748,0.4792,0.4836,0.4879,0.4909,0.492,0.4965,0.5031,0.5071,0.5151,0.5216,0.5276,0.5301,0.5289,0.5287,0.5306,0.5309,0.5305,0.5312,0.5106,0.5283,0.5282,0.5281,0.528,0.5279,0.4744,0.4794,0.4834,0.4894,0.4926,0.4966,0.5016,0.5036,0.5091,0.5156,0.5155,0.5229,0.5272,0.5352,0.5381,0.544,0.5419,0.5445,0.5452,0.5459,0.5467,0.5293,0.545,0.545,0.545,0.5449,0.5449,0,0.4895,0.492,0.4975,0.5035,0.5083,0.5065,0.5112,0.5154,0.5219,0.5259,0.531,0.5388,0.5452,0.5481,0.5544,0.5586,0.5582,0.5603,0.5601,0.5608,0.548,0.546,0.5605,0.5605,0.5605,0.5605,0.5605,0.5605,0.498,0.5064,0.5073,0.5175,0.52,0.5271,0.53,0.5338,0.5371,0.5458,0.5511,0.5529,0.5566,0.5632,0.569,0.5697,0.5723,0.5747,0.5752,0.5632,0.5617,0.5602,0.5582,0.5751,0.5752,0.5875,0.5876,0.5877]},{"header":{"parameterUnit":"m.s-1","parameterCategory":1,"la1":30.2991,"la2":30.254,"lo1":-89.0895,"lo2":-89.0444,"dy":0.0017,"dx":0.0017,"nx":28,"ny":28,"refTime":"2024-10-10T21:00:00:Z","depth":0,"parameterNumber":3,"parameterNumberName":"V-component_of_WINDS"},"data":[0,0,0,0,0,0,0,0,0,0,0,0,0,0,0,0,0,0,0,0,0,0,0,0,0,0,0,0,0,0,0,0,0,0,0,0,0,0,0,0,0,0,0,0,0,0,0,0,0,0,0,0,0,0,0,0,0,0,-2.1889,-2.1889,0,-2.1912,-2.1912,-2.1913,-2.1962,-2.1963,-2.1965,-2.1965,-2.1986,-2.1986,-2.1985,0,0,0,0,0,0,0,0,0,0,0,0,0,-2.1887,-2.1886,-2.1889,-2.1889,-2.189,-2.1912,-2.1912,-2.1913,-2.1962,-2.1964,-2.1965,-2.1966,-2.1986,-2.1986,-2.1985,0,0,0,0,0,0,0,0,0,0,0,0,0,-2.1896,-2.1886,-2.1889,-2.1917,-2.192,-2.1912,-2.1912,-2.1913,-2.1962,-2.1964,-2.1965,-2.1967,-2.1986,-2.1986,-2.1985,-2.1951,0,0,-2.1983,-2.1983,0,0,0,0,0,0,0,0,-2.1896,-2.1896,-2.1913,-2.1915,-2.1918,-2.1936,-2.1919,-2.1925,-2.1962,-2.1946,-2.1966,-2.1967,-2.1968,-2.1969,-2.197,-2.1952,-2.1952,-2.1983,-2.1983,-2.1983,-2.1982,0,0,0,0,0,0,0,-2.1895,-2.1896,-2.1898,-2.1913,-2.1916,-2.1928,-2.1931,-2.1921,-2.1948,-2.1947,-2.1951,-2.1953,-2.197,-2.197,-2.1971,-2.1953,-2.1983,-2.1983,-2.1982,-2.1982,-2.1909,-2.1907,0,0,0,0,0,0,-2.1891,-2.1895,-2.1897,-2.1899,-2.1911,-2.1927,-2.193,-2.1929,-2.1948,-2.1953,-2.1952,-2.1956,-2.1971,-2.1971,-2.1972,-2.1932,-2.1983,-2.1982,-2.1982,-2.191,-2.1908,-2.1907,0,0,0,0,0,0,-2.189,-2.189,-2.1896,-2.1898,-2.19,-2.1925,-2.1923,-2.1928,-2.1929,-2.1952,-2.1957,-2.1947,-2.1972,-2.1972,-2.1956,-2.1934,-2.1982,-2.1981,-2.1912,-2.191,-2.1908,-2.1853,0,0,0,0,0,0,-2.189,-2.189,-2.1877,-2.1897,-2.1899,-2.188,-2.1922,-2.1928,-2.1928,-2.1933,-2.1949,-2.1953,-2.1973,-2.1957,-2.1955,-2.1934,-2.1981,-2.1914,-2.1911,-2.1908,-2.1857,-2.185,-2.1843,0,0,0,0,0,-2.189,-2.186,-2.1876,-2.1876,-2.1884,-2.1879,-2.188,-2.1905,-2.1926,-2.1913,-2.1928,-2.1952,-2.1937,-2.1954,-2.1953,-2.1931,-2.1916,-2.1912,-2.1909,-2.186,-2.1851,-2.1843,0,0,0,0,0,0,-2.1834,-2.1863,-2.1881,-2.1857,-2.1865,-2.1887,-2.1871,-2.1894,-2.1895,-2.1899,-2.193,-2.1933,-2.1912,-2.1921,-2.1939,-2.19,-2.193,-2.1926,-2.1894,-2.1885,-2.1878,-2.1875,-2.198,0,0,0,0,0,-2.182,-2.1814,-2.1839,-2.1816,-2.1819,-2.1845,-2.1843,-2.1862,-2.1871,-2.1875,-2.1889,-2.1896,-2.1893,-2.189,-2.1889,-2.186,-2.1864,-2.1845,-2.1838,-2.1832,-2.1827,-2.1813,-2.1804,-2.1895,-2.1895,-2.1895,0,0,-2.1788,-2.1804,-2.1798,-2.1805,-2.1813,-2.1806,-2.1847,-2.1837,-2.1832,-2.1873,-2.1858,-2.1869,-2.188,-2.1857,-2.1848,-2.1863,-2.1803,-2.1827,-2.1822,-2.1821,-2.1808,-2.1799,-2.1792,-2.1893,-2.1893,-2.1893,0,0,-2.1727,-2.1739,-2.172,-2.1729,-2.1743,-2.1761,-2.1756,-2.1776,-2.1785,-2.1771,-2.1802,-2.1797,-2.1791,-2.1797,-2.18,-2.1745,-2.1767,-2.1744,-2.1705,-2.1691,-2.1684,-2.1677,-2.1657,-2.1649,-2.174,-2.174,-2.174,0,-2.1686,-2.1677,-2.1708,-2.1697,-2.1699,-2.1739,-2.172,-2.1727,-2.1738,-2.1739,-2.1757,-2.1752,-2.1762,-2.1741,-2.1728,-2.173,-2.1725,-2.174,-2.1683,-2.1677,-2.1671,-2.1652,-2.1644,-2.1737,-2.1737,-2.1737,-2.1738,0,-2.1626,-2.162,-2.1603,-2.1615,-2.1616,-2.1601,-2.1629,-2.1627,-2.1647,-2.1663,-2.1649,-2.1663,-2.1665,-2.1662,-2.1681,-2.1645,-2.1654,-2.1677,-2.1708,-2.1659,-2.1641,-2.1634,-2.1732,-2.1734,-2.1734,-2.1735,0,0,-2.1526,-2.1558,-2.1551,-2.1558,-2.1577,-2.1573,-2.1561,-2.1565,-2.1561,-2.157,-2.1559,-2.1555,-2.1578,-2.158,-2.1601,-2.1589,-2.1544,-2.1613,-2.1614,-2.1598,-2.1505,-2.1485,-2.1476,-2.156,-2.1559,-2.1558,-2.1503,0,-2.1468,-2.1449,-2.1477,-2.1452,-2.1446,-2.1486,-2.1475,-2.1486,-2.1501,-2.1499,-2.1516,-2.1512,-2.1543,-2.1545,-2.1535,-2.1551,-2.1525,-2.1556,-2.155,-2.1549,-2.1543,-2.1467,-2.1446,-2.1393,-2.1497,-2.1496,-2.1495,0,-2.1396,-2.1402,-2.1376,-2.1399,-2.1398,-2.1388,-2.1395,-2.1392,-2.1406,-2.1418,-2.1423,-2.1448,-2.1438,-2.1471,-2.1457,-2.1477,-2.1477,-2.1485,-2.1484,-2.1482,-2.1517,-2.1461,-2.1377,-2.1368,-2.1484,-2.1485,-2.1486,0,-2.1323,-2.1326,-2.1311,-2.1316,-2.1342,-2.1334,-2.1345,-2.1361,-2.1362,-2.1368,-2.1369,-2.1374,-2.1376,-2.1379,-2.1405,-2.1426,-2.1387,-2.1422,-2.1396,-2.1395,-2.1383,-2.1383,-2.1296,-2.1387,-2.1388,-2.1388,-2.1388,0,-2.1253,-2.1235,-2.1279,-2.1269,-2.1251,-2.1285,-2.1266,-2.1281,-2.1295,-2.1289,-2.1324,-2.1317,-2.1353,-2.135,-2.1371,-2.1356,-2.1357,-2.1366,-2.1371,-2.1361,-2.136,-2.1359,-2.1363,-2.1386,-2.1386,-2.1387,-2.1387,0,-2.1168,-2.1196,-2.1182,-2.1211,-2.1217,-2.1202,-2.1226,-2.1218,-2.1238,-2.123,-2.123,-2.126,-2.1259,-2.1287,-2.1291,-2.1305,-2.128,-2.1293,-2.1275,-2.1278,-2.125,-2.1252,-2.1158,-2.1147,-2.1247,-2.1246,-2.1245,0,-2.1119,-2.1107,-2.1135,-2.1134,-2.1143,-2.1141,-2.1144,-2.1178,-2.1179,-2.1195,-2.1185,-2.1188,-2.1191,-2.1188,-2.121,-2.1214,-2.1226,-2.1193,-2.1226,-2.1217,-2.1223,-2.1222,-2.1221,-2.1184,-2.1183,-2.1182,-2.1181,0,-2.103,-2.1046,-2.1048,-2.1056,-2.1059,-2.1066,-2.1076,-2.1073,-2.1111,-2.111,-2.111,-2.1113,-2.1119,-2.1121,-2.1129,-2.114,-2.1166,-2.1171,-2.1165,-2.1153,-2.1143,-2.1147,-2.1253,-2.1172,-2.1173,-2.1174,-2.1174,-2.1175,-2.096,-2.0952,-2.097,-2.0972,-2.0984,-2.0993,-2.0987,-2.1008,-2.1009,-2.1017,-2.1038,-2.1035,-2.1051,-2.1066,-2.1075,-2.1073,-2.1089,-2.108,-2.1078,-2.1074,-2.1068,-2.1146,-2.1075,-2.1075,-2.1075,-2.1076,-2.1076,0,-2.0871,-2.0887,-2.0888,-2.0902,-2.0904,-2.0932,-2.0945,-2.0944,-2.0941,-2.0955,-2.0959,-2.096,-2.0963,-2.0987,-2.0992,-2.0986,-2.0998,-2.0986,-2.0985,-2.0987,-2.1054,-2.1058,-2.0976,-2.0976,-2.0976,-2.0976,-2.0976,-2.0976,-2.0825,-2.0812,-2.083,-2.0823,-2.0839,-2.0837,-2.0842,-2.0851,-2.0862,-2.0862,-2.0865,-2.0882,-2.09,-2.0907,-2.0911,-2.0918,-2.0918,-2.0901,-2.0911,-2.0973,-2.0982,-2.0991,-2.0995,-2.0901,-2.0901,-2.0845,-2.0844,-2.0844]}]]